Temp_Advection
nan nan nan nan nan nan nan nan nan nan nan nan nan nan nan nan nan nan nan nan nan nan nan nan nan nan nan nan nan nan nan nan nan nan nan nan nan nan nan nan nan nan nan nan
nan -0 -1 -0 -0 -0 0 -0 -1 -1 -0 0 -0 -1 -0 1 -0 -1 -1 -1 -1 -1 -1 -1 -1 -0 -0 -0 0 0 1 0 0 -0 1 1 1 0 0 1 1 1 1 nan
nan -1 -0 0 0 -0 0 -0 -0 -1 -0 0 0 -1 -1 -0 -0 -1 -1 -1 -1 -1 -2 -0 -1 -1 0 -0 -0 1 -0 0 0 1 1 0 -0 1 1 0 1 1 1 nan
nan -0 0 0 -0 0 -0 -1 -0 0 -0 -0 -0 -0 -2 -0 -0 -1 -1 0 -1 -1 -1 -0 0 0 -0 -1 -0 0 0 1 1 1 -0 -0 2 1 -0 1 1 1 1 nan
nan -0 0 -0 -0 -0 -0 -0 0 0 0 -0 0 0 -2 -0 -1 -1 0 -1 -1 -1 -1 -1 -0 -0 -0 -1 -0 0 1 1 1 1 -0 2 2 0 2 2 1 1 0 nan
nan -0 0 -0 -0 0 -0 0 -0 -0 0 -0 -0 -0 -1 -0 0 -1 -1 -0 -1 -1 0 -0 -1 -0 -0 -0 0 1 1 2 2 1 0 1 0 2 2 0 0 0 0 nan
nan -0 -0 -0 -0 -0 0 -0 0 -0 -0 -1 -0 0 -1 0 -0 -0 -1 -1 -1 -0 -0 -1 -2 -2 -1 -0 0 1 1 0 1 -0 -0 1 2 2 1 0 0 0 0 nan
nan -0 -0 -0 -0 0 -0 0 0 0 -0 -0 -0 0 -0 -0 -0 0 -1 -2 -1 -2 -2 -2 -1 -1 -1 -1 0 0 -0 -1 -0 -1 1 2 2 2 1 0 1 0 0 nan
nan -0 -1 -0 -0 0 0 -0 0 0 0 0 -0 -0 -0 -1 -1 -1 -0 -0 -0 -1 -2 -1 -0 -0 -1 -0 0 0 -0 -0 0 1 1 1 1 1 0 1 1 1 1 nan
nan -0 -0 -0 -0 -0 -0 0 0 -0 -0 -0 -0 0 -0 -0 -0 -0 -0 -0 -1 -1 -1 -1 -1 -1 -0 0 1 1 1 1 1 2 2 1 1 1 0 0 1 1 1 nan
nan 0 -0 -0 -0 -0 -0 -0 -0 -0 -0 0 -0 0 0 0 0 0 -0 -1 -1 -1 -1 -1 -1 -1 -0 0 0 1 1 1 1 1 2 1 1 0 0 1 1 1 1 nan
nan 0 -0 -1 -1 0 0 0 0 -0 -0 0 0 -0 -0 -0 -1 -1 -1 -1 -1 -1 -1 -0 -0 -1 -1 -0 -0 0 0 0 1 1 0 0 0 0 1 1 1 0 0 nan
nan 0 -0 -1 -0 -0 -0 -0 0 0 -0 -0 -0 0 -1 -1 -1 -1 -0 -1 -1 -1 -1 -1 -1 -1 -1 -1 -1 -0 -0 0 0 0 -1 -0 0 1 1 1 0 0 0 nan
nan 0 0 -0 -0 -0 -0 -1 -0 0 -0 -0 -0 0 -1 -0 -0 -0 -0 -1 -1 -1 -1 -1 -2 -1 -1 -1 -1 -0 0 0 0 0 0 1 1 1 1 0 0 0 0 nan
nan 0 -0 -0 -0 -0 -0 -0 -1 -1 0 0 -0 -0 -0 -0 -0 -1 -1 -1 -1 -1 -1 -1 -1 -0 -0 -0 -0 -0 -0 1 2 1 1 1 1 1 0 0 0 0 0 nan
nan 0 -0 -1 -0 -0 -0 -1 -0 -0 0 0 0 -1 -1 -0 -1 -1 -1 -1 -1 -1 -1 -0 -0 -0 -0 -1 -1 -0 -0 0 2 2 2 1 0 0 0 0 0 0 0 nan
nan 0 -0 -1 -0 -0 -0 -1 -0 -0 -0 0 -0 -0 -1 -1 -1 -1 -1 -1 -1 -1 -0 0 0 -0 -0 0 0 -0 -0 -0 0 2 2 2 1 0 1 1 0 0 0 nan
nan -0 0 -1 -0 -0 -0 0 -1 -1 -0 -0 -0 -0 -1 -1 -1 -0 -0 -0 -0 -0 0 0 0 0 0 1 0 0 0 0 -0 0 1 3 3 2 2 1 2 2 1 nan
nan -0 -0 -0 -0 -0 0 -0 -0 -0 -0 -0 -0 -0 -1 -1 -1 -1 -0 -0 -0 0 0 0 0 0 1 0 0 0 0 0 -0 -0 -0 -0 1 2 2 3 2 4 3 nan
nan -0 -0 -0 -0 0 -0 -0 -1 -0 -0 -1 -1 -0 0 0 -0 -0 -0 -0 -0 -0 -0 0 0 0 0 0 1 0 -0 -0 -0 0 0 0 0 0 -0 0 0 1 2 nan
nan 0 -0 -0 -0 0 -1 -1 -1 -0 -0 -1 -1 -1 -1 -0 -1 -0 -0 -0 -0 -0 0 1 0 -0 0 1 0 -1 -1 -1 0 1 1 1 -0 -0 0 0 -0 -0 -0 nan
nan 0 -0 -0 0 0 -1 -0 -0 -1 -1 -0 -1 -0 -0 0 -0 -0 -0 -0 -0 0 0 0 0 0 0 0 -0 -1 -1 -0 0 0 0 0 0 0 0 0 -0 0 1 nan
nan -0 -0 -0 -0 -0 -0 -1 -1 -0 -0 -0 -0 -0 -0 -0 -0 -0 -0 -0 0 0 0 0 0 -0 -0 -0 0 -0 -0 0 0 0 -0 0 0 -0 0 0 0 0 -0 nan
nan -0 0 -0 -0 -0 -1 -0 -0 -0 -0 -0 -0 -0 -0 -0 -0 -0 -0 -0 0 0 0 0 0 -0 -0 0 -0 -0 0 0 0 -0 -0 0 -0 0 0 0 0 0 0 nan
nan -0 -0 -0 -0 -0 -0 -0 -0 -0 -0 -0 0 -0 -0 -0 -0 -0 -0 0 0 0 0 0 -0 -0 0 0 -0 0 0 0 0 -0 -0 -0 0 -0 -0 -0 0 -0 -0 nan
nan nan nan nan nan nan nan nan nan nan nan nan nan nan nan nan nan nan nan nan nan nan nan nan nan nan nan nan nan nan nan nan nan nan nan nan nan nan nan nan nan nan nan nan
Wind_Speed
4 3 8 9 8 5 5 11 14 14 10 6 12 13 17 11 17 18 26 29 34 34 37 39 36 33 29 23 39 46 41 35 38 44 41 40 39 38 36 31 29 28 26 26
1 8 11 9 8 8 10 15 17 19 17 9 11 18 18 15 10 23 26 30 34 37 41 44 44 36 35 33 29 40 47 41 40 44 45 45 45 41 36 32 30 28 26 26
8 9 7 10 12 11 15 13 15 16 6 4 7 19 15 15 18 23 28 30 33 33 37 43 38 37 36 40 35 35 41 45 43 41 48 44 44 37 31 32 30 28 28 24
6 14 13 11 10 12 16 11 15 12 5 12 6 13 26 19 15 14 20 22 9 12 9 3 14 27 30 27 32 37 36 44 45 46 49 47 48 40 38 36 32 28 26 26
6 10 9 7 7 6 14 9 11 6 5 5 18 2 26 10 20 20 13 6 12 14 16 17 11 1 8 20 32 30 31 43 47 47 48 49 45 38 35 33 29 25 25 27
7 6 4 7 11 6 7 4 3 1 2 9 25 5 21 6 4 7 9 8 11 17 21 20 16 10 8 3 12 21 33 42 47 48 51 46 43 38 35 31 28 26 22 25
6 5 5 7 7 6 5 4 4 3 2 13 7 7 16 9 3 7 14 16 17 16 25 23 24 18 15 7 5 25 33 41 45 48 45 44 40 36 33 30 29 25 23 24
4 6 6 10 2 4 8 8 6 4 3 4 6 6 4 6 7 7 18 28 26 25 20 24 22 21 17 14 1 22 30 33 36 41 42 37 34 34 30 27 26 23 21 19
4 4 16 7 7 5 7 4 4 6 6 6 5 9 1 11 12 13 18 13 17 27 19 19 22 20 19 21 8 15 29 31 34 38 34 31 28 27 26 23 20 19 16 17
2 7 2 7 12 3 5 6 3 3 4 7 5 7 1 12 11 14 7 9 16 20 24 25 23 23 20 20 19 12 18 26 31 34 31 31 26 24 23 20 21 18 16 22
1 1 4 5 1 5 8 4 5 4 5 5 6 3 3 3 4 2 5 13 17 20 26 24 24 24 22 19 18 12 12 17 20 20 28 24 25 23 20 20 21 18 18 20
1 1 4 7 15 15 12 4 0 5 2 3 2 3 6 11 13 13 11 13 16 22 26 28 26 25 23 21 18 12 12 8 14 13 20 15 21 19 20 21 19 15 14 15
0 1 4 9 5 8 5 6 2 5 5 8 4 2 9 11 10 16 13 15 19 21 26 30 29 28 26 24 19 10 4 3 10 22 24 26 25 22 21 17 13 11 13 13
3 2 5 7 10 9 12 16 13 3 5 7 9 4 8 4 5 10 12 14 18 20 24 30 31 29 25 22 20 15 6 8 8 16 24 27 25 24 23 19 17 17 15 14
5 4 4 7 9 14 17 18 18 15 13 8 9 3 6 5 8 12 11 15 17 21 24 27 29 28 26 22 19 16 11 8 17 25 28 29 25 22 21 20 19 18 17 14
2 3 2 13 11 13 15 15 15 15 13 12 9 10 10 11 11 16 15 14 17 20 21 23 26 27 27 25 21 18 14 8 13 23 30 24 25 21 20 19 19 19 17 16
6 3 1 10 7 14 14 13 15 6 7 5 2 5 10 9 11 12 11 14 16 16 18 23 25 26 25 23 20 19 16 11 7 16 19 26 26 25 22 21 21 15 20 20
7 5 3 8 9 6 8 12 19 16 11 10 8 6 9 12 14 12 13 13 14 17 20 21 22 24 23 21 19 17 16 14 10 12 12 17 22 24 24 24 21 25 27 24
14 5 3 3 4 11 6 5 4 5 7 8 6 6 12 15 16 16 13 15 16 16 17 18 18 20 21 23 23 21 22 21 17 18 18 15 9 18 18 23 22 23 23 22
10 10 5 3 4 4 4 17 20 8 5 10 8 6 4 11 2 2 9 12 15 18 17 18 20 20 21 23 24 27 28 27 27 24 21 20 19 15 12 13 14 16 19 19
4 5 13 10 3 4 13 23 17 3 3 9 12 15 14 5 9 10 10 12 12 13 16 18 20 24 23 20 22 25 25 26 23 23 23 23 23 23 21 19 15 13 17 19
5 2 4 6 3 3 26 7 6 6 11 12 13 13 17 19 15 14 12 12 13 14 16 20 25 26 24 22 22 23 23 18 18 18 23 24 24 23 23 23 22 21 19 17
4 5 2 5 3 5 12 15 18 14 13 12 13 11 15 17 16 14 15 15 14 14 17 18 21 23 24 26 27 24 20 15 16 19 20 20 20 20 19 20 20 21 21 23
8 15 3 3 5 11 12 14 15 14 15 13 11 14 16 17 15 14 13 14 14 15 15 16 18 21 22 21 21 22 21 18 18 20 20 19 20 20 20 20 20 20 20 20
4 8 6 6 8 12 13 11 10 12 13 14 13 13 13 14 14 14 14 15 16 17 16 16 18 19 19 17 17 17 16 16 18 19 19 19 19 18 18 19 19 18 18 16
8 4 3 2 5 9 7 8 10 12 11 11 13 14 12 13 16 16 18 17 17 17 15 16 17 16 16 16 17 17 15 14 13 15 16 17 17 17 16 15 15 16 15 13
Wind_Direction
219 132 227 231 215 219 255 274 275 280 267 255 275 278 284 273 277 282 287 292 287 284 286 281 278 275 264 260 246 239 236 225 220 224 224 218 217 222 221 227 228 222 220 220
322 227 235 230 230 230 247 256 269 273 265 231 274 272 273 283 260 271 273 276 278 285 284 278 274 271 268 257 256 248 236 226 219 222 224 225 217 218 225 222 220 218 217 220
220 252 267 230 253 249 247 245 259 262 275 246 284 279 288 281 275 279 281 279 281 286 283 275 263 263 257 256 250 256 240 231 221 221 220 221 225 220 214 216 216 216 215 215
238 259 242 260 244 241 262 245 257 265 320 294 168 289 289 280 273 277 287 292 32 22 24 263 238 245 253 257 253 255 248 230 221 218 216 221 222 210 216 217 212 212 212 215
252 309 310 289 254 239 267 229 237 265 277 346 276 219 280 334 297 287 287 45 48 42 29 10 34 337 260 259 251 247 235 219 215 216 215 219 216 216 220 211 211 217 218 218
233 256 212 247 273 231 296 287 350 310 147 263 271 196 277 281 306 359 339 26 47 15 22 356 355 8 20 302 240 221 223 216 214 214 214 215 216 217 215 208 214 211 218 216
297 250 261 293 293 296 216 73 315 321 327 255 283 262 259 279 87 47 20 9 357 28 14 355 353 357 9 19 219 201 212 212 213 213 214 213 218 221 217 211 211 209 211 212
341 337 15 342 5 271 263 203 215 255 239 291 337 260 272 16 14 344 41 14 352 5 6 1 359 5 9 11 144 204 203 213 220 211 214 218 216 219 217 212 211 212 213 219
338 264 332 26 347 336 324 244 220 242 280 293 241 265 352 31 34 31 21 2 328 16 17 6 11 13 14 28 52 188 207 216 215 214 219 217 220 212 210 206 207 208 214 218
314 295 320 347 335 320 356 287 299 330 245 256 245 254 356 6 9 15 25 347 358 9 11 15 13 14 18 28 49 140 193 213 222 218 220 220 214 203 210 208 205 203 214 220
16 226 325 341 328 335 343 339 321 272 224 250 281 284 225 266 249 197 6 6 8 7 10 13 14 17 18 27 42 76 162 194 212 212 214 215 208 202 211 208 202 208 221 230
171 227 283 278 277 260 240 306 256 283 345 279 218 250 23 42 11 88 43 12 8 6 9 18 15 19 19 24 32 36 66 184 199 242 251 210 213 207 205 204 202 203 227 214
184 322 327 307 331 35 13 317 257 265 256 244 247 227 57 66 46 32 15 11 10 4 10 18 18 19 23 21 30 34 53 143 196 221 217 214 208 210 202 189 191 192 197 197
104 202 204 254 288 321 294 297 296 248 277 309 284 275 93 88 75 53 18 18 14 11 16 17 18 19 23 24 20 31 57 177 197 188 200 196 189 188 180 180 192 185 195 191
138 202 235 256 287 281 273 276 274 259 266 253 282 135 86 32 40 50 22 22 18 17 19 17 17 19 21 25 22 29 33 105 157 164 176 171 172 172 178 183 191 193 198 198
196 246 236 293 292 285 294 276 266 256 259 262 245 110 110 70 45 38 26 20 22 19 19 20 21 24 24 25 26 27 29 52 124 141 157 155 164 172 177 183 192 198 198 199
174 181 24 279 305 318 293 248 234 107 21 228 70 76 114 90 60 30 28 32 27 19 21 30 30 29 28 30 30 36 37 29 74 129 139 153 166 173 179 184 194 189 199 204
193 151 162 280 296 249 323 67 100 95 58 53 84 76 92 108 94 61 40 44 34 31 34 37 39 40 39 44 46 51 57 53 59 82 107 141 153 161 165 169 176 194 195 188
201 160 232 233 253 291 275 30 328 77 74 42 56 52 142 138 110 56 39 46 50 46 42 46 48 52 53 54 60 64 65 68 66 66 75 69 92 144 149 157 155 152 165 172
169 195 185 216 272 314 46 332 323 201 81 33 43 29 125 183 88 40 41 51 49 48 53 56 58 59 59 59 60 65 66 70 70 68 79 79 78 80 80 115 136 127 138 137
161 195 220 223 246 286 358 321 313 115 63 65 59 48 59 79 82 111 87 69 63 65 61 62 63 62 56 58 63 64 62 62 67 73 79 82 88 90 89 91 85 89 102 111
169 226 207 186 175 276 350 1 55 96 90 94 85 86 88 101 104 100 86 76 72 69 66 64 66 65 62 56 61 63 62 65 72 73 72 77 85 91 94 99 101 102 101 99
57 345 52 34 90 55 26 49 57 84 92 89 95 108 115 109 105 102 94 81 74 74 70 67 66 66 62 62 60 62 61 66 70 72 75 76 78 80 87 92 95 97 98 99
351 12 87 113 69 73 66 57 65 75 87 94 100 117 118 118 114 103 92 85 78 75 74 73 71 69 66 60 62 64 61 62 68 73 75 78 82 86 89 92 93 93 96 97
342 330 19 90 110 108 60 69 74 84 95 110 121 129 126 124 113 108 99 90 84 83 83 80 76 74 72 69 67 65 62 65 70 72 73 75 77 81 91 94 93 95 95 93
353 353 5 63 349 100 84 86 104 102 106 121 126 116 113 114 108 104 95 94 91 87 85 82 78 75 72 71 70 67 62 58 65 73 72 71 71 73 75 76 86 93 96 98
Height
1463 1469 1470 1466 1466 1463 1464 1464 1462 1457 1454 1456 1446 1440 1427 1427 1425 1421 1417 1414 1410 1408 1406 1405 1406 1407 1408 1407 1411 1411 1416 1421 1425 1430 1436 1443 1444 1445 1449 1454 1459 1461 1463 1465
1464 1466 1457 1457 1459 1462 1463 1463 1460 1449 1446 1448 1440 1431 1422 1421 1419 1415 1410 1406 1403 1400 1397 1397 1397 1400 1399 1401 1402 1404 1407 1411 1417 1422 1429 1436 1437 1439 1444 1449 1452 1455 1457 1460
1461 1453 1450 1455 1455 1457 1455 1459 1454 1449 1440 1438 1440 1425 1421 1414 1411 1407 1404 1401 1397 1393 1388 1386 1388 1390 1391 1392 1395 1395 1399 1403 1408 1414 1421 1428 1433 1438 1441 1443 1446 1448 1453 1456
1454 1446 1449 1448 1449 1450 1451 1446 1442 1441 1444 1446 1435 1438 1413 1412 1407 1404 1400 1394 1391 1390 1387 1383 1379 1381 1383 1383 1384 1388 1390 1393 1399 1405 1412 1419 1423 1426 1429 1433 1439 1443 1448 1452
1452 1446 1446 1448 1445 1444 1441 1437 1437 1437 1442 1445 1428 1445 1401 1410 1406 1399 1395 1394 1392 1389 1387 1385 1377 1376 1376 1375 1377 1380 1383 1387 1391 1397 1404 1410 1417 1421 1424 1429 1434 1439 1443 1448
1446 1441 1443 1441 1435 1437 1434 1435 1436 1435 1443 1449 1420 1440 1411 1413 1408 1406 1400 1398 1393 1393 1382 1387 1381 1376 1374 1372 1372 1375 1378 1381 1385 1389 1396 1404 1412 1416 1419 1424 1429 1433 1438 1442
1446 1441 1436 1438 1436 1431 1434 1441 1456 1458 1463 1439 1422 1428 1411 1406 1407 1410 1406 1404 1404 1389 1380 1385 1379 1373 1371 1369 1369 1370 1376 1380 1381 1387 1396 1400 1406 1411 1415 1418 1423 1428 1433 1437
1455 1450 1440 1442 1441 1442 1437 1434 1445 1453 1449 1440 1428 1428 1414 1410 1410 1409 1402 1403 1408 1394 1385 1382 1384 1377 1372 1368 1366 1368 1373 1378 1384 1386 1392 1400 1406 1409 1413 1415 1418 1423 1427 1434
1462 1450 1441 1441 1443 1442 1437 1437 1432 1437 1437 1441 1430 1413 1408 1409 1410 1409 1406 1410 1410 1396 1397 1395 1384 1380 1375 1370 1366 1366 1372 1380 1381 1386 1393 1398 1402 1406 1410 1412 1416 1421 1426 1431
1462 1460 1446 1445 1442 1438 1440 1438 1444 1448 1444 1436 1420 1413 1414 1413 1417 1416 1415 1413 1409 1403 1399 1389 1384 1380 1376 1373 1370 1368 1373 1380 1383 1387 1390 1393 1396 1403 1408 1410 1414 1418 1423 1428
1462 1462 1452 1450 1447 1448 1446 1446 1444 1439 1431 1428 1424 1419 1421 1418 1416 1415 1416 1416 1412 1407 1402 1394 1386 1380 1377 1374 1371 1371 1372 1375 1379 1384 1383 1392 1394 1399 1404 1408 1413 1417 1421 1425
1461 1463 1463 1454 1446 1442 1444 1445 1448 1444 1429 1426 1427 1417 1419 1422 1414 1414 1419 1420 1415 1410 1402 1393 1387 1381 1377 1375 1373 1373 1374 1374 1377 1380 1380 1389 1395 1398 1403 1407 1413 1415 1419 1423
1461 1468 1468 1451 1446 1441 1447 1447 1449 1450 1443 1429 1430 1415 1422 1422 1423 1420 1421 1420 1416 1412 1402 1395 1389 1383 1380 1378 1377 1377 1378 1380 1381 1382 1386 1390 1394 1397 1403 1407 1411 1414 1418 1422
1461 1465 1464 1465 1459 1459 1456 1449 1445 1445 1448 1430 1420 1413 1418 1427 1422 1421 1425 1422 1418 1414 1405 1399 1394 1389 1385 1383 1382 1381 1381 1381 1382 1383 1386 1389 1393 1398 1400 1406 1411 1413 1418 1420
1462 1468 1464 1459 1457 1455 1451 1444 1437 1437 1429 1431 1422 1416 1424 1430 1428 1424 1427 1424 1421 1416 1409 1405 1401 1395 1391 1387 1385 1384 1383 1381 1381 1383 1385 1389 1392 1396 1399 1403 1409 1413 1416 1418
1462 1469 1461 1452 1450 1445 1439 1431 1425 1425 1421 1419 1417 1417 1428 1434 1435 1430 1429 1428 1424 1421 1417 1413 1408 1401 1396 1392 1389 1387 1385 1384 1380 1379 1382 1385 1389 1394 1397 1402 1407 1411 1413 1416
1460 1464 1463 1453 1447 1441 1438 1415 1410 1426 1424 1416 1415 1425 1429 1436 1436 1440 1437 1433 1430 1429 1424 1418 1414 1408 1403 1398 1395 1392 1389 1388 1384 1382 1382 1384 1387 1392 1396 1400 1405 1404 1410 1415
1449 1459 1462 1453 1448 1442 1415 1404 1411 1424 1430 1429 1429 1430 1431 1437 1439 1443 1441 1438 1436 1433 1427 1422 1419 1415 1411 1406 1401 1398 1395 1393 1392 1388 1387 1386 1387 1390 1394 1396 1399 1403 1408 1411
1436 1450 1455 1449 1440 1423 1422 1423 1422 1421 1434 1437 1433 1433 1436 1437 1436 1443 1443 1440 1438 1435 1432 1429 1424 1421 1417 1412 1408 1404 1401 1399 1399 1397 1390 1389 1391 1390 1395 1393 1395 1398 1403 1407
1433 1439 1446 1442 1433 1420 1421 1424 1421 1422 1431 1440 1439 1439 1433 1436 1434 1446 1445 1443 1441 1438 1436 1434 1429 1425 1423 1420 1417 1413 1410 1408 1404 1398 1401 1398 1398 1400 1400 1400 1403 1402 1403 1406
1437 1440 1439 1439 1436 1425 1429 1421 1415 1417 1443 1444 1442 1438 1436 1439 1442 1448 1448 1447 1445 1444 1442 1437 1432 1428 1428 1426 1422 1420 1420 1419 1417 1415 1410 1405 1404 1405 1407 1408 1411 1410 1411 1410
1426 1429 1425 1430 1431 1431 1438 1424 1424 1442 1445 1445 1444 1445 1445 1445 1448 1450 1450 1449 1447 1446 1444 1440 1436 1433 1432 1431 1428 1428 1428 1429 1427 1425 1419 1417 1413 1415 1415 1415 1415 1417 1418 1419
1430 1432 1428 1433 1446 1451 1448 1446 1444 1443 1445 1446 1446 1448 1449 1451 1453 1453 1453 1451 1450 1448 1447 1445 1442 1439 1438 1438 1437 1436 1436 1437 1434 1430 1428 1428 1424 1424 1426 1424 1425 1423 1426 1427
1436 1437 1437 1439 1453 1451 1451 1451 1449 1449 1448 1448 1450 1452 1453 1454 1456 1456 1455 1454 1453 1451 1450 1449 1447 1445 1445 1445 1443 1442 1443 1442 1439 1437 1436 1434 1433 1433 1432 1432 1432 1433 1433 1433
1450 1445 1443 1450 1454 1454 1455 1454 1453 1453 1454 1455 1456 1457 1458 1458 1459 1459 1459 1457 1455 1455 1455 1454 1452 1452 1452 1451 1450 1450 1449 1448 1445 1444 1443 1442 1440 1440 1440 1440 1439 1439 1439 1439
1456 1454 1453 1456 1457 1456 1460 1460 1459 1459 1460 1460 1459 1459 1462 1461 1460 1461 1462 1460 1459 1458 1459 1458 1458 1459 1457 1456 1455 1454 1454 1453 1451 1450 1449 1448 1448 1447 1446 1444 1443 1444 1443 1444